Regional Weather Roundup
Issued by NWS Kansas City/Pleasant Hill, MO

Home | Current Version | Previous Version | Text Only | Print | Product List | Glossary On
Versions: 1 2 3 4 5 6 7 8 9 10 11 12 13 14 15 16 17 18 19 20 21 22 23 24 25 26 27 28 29 30 31 32 33 34 35 36 37 38 39 40 41 42 43 44 45 46 47 48 49
000
ASUS43 KEAX 300410
RWREAX

WEATHER ROUNDUP FOR EASTERN KANSAS AND NORTHWEST MISSOURI
NATIONAL WEATHER SERVICE KANSAS CITY/PLEASANT HILL MO
1100 PM CDT SAT AUG 29 2015

KSZ040-057-103>105-MOZ028-029-037-043-300500-
...KANSAS CITY METROPOLITAN AREA...

CITY           SKY/WX    TMP DP  RH WIND       PRES   REMARKS
K.C. INTL      MOCLDY    66  64  93 NE7       30.05R
K.C. DOWNTOWN  CLOUDY    72  67  84 N5        30.04R
LEES SUMMIT    MOCLDY    71  66  84 NE8       30.05R
OLATHE - IXD   MOCLDY    68  67  96 CALM      30.05S
OLATHE - OJC   CLOUDY    70  67  90 NE8       30.04R
LAWRENCE       PTCLDY    65  63  93 NW3       30.05R

$$

MOZ001>008-011>017-020>025-030>033-038>040-044>046-053-054-300500-
...NORTHERN AND CENTRAL MISSOURI...

CITY           SKY/WX    TMP DP  RH WIND       PRES   REMARKS
ST. JOSEPH     MOCLDY    61  60  97 NE3       30.05S
MOSBY          CLOUDY    68  66  94 N3        30.04S
WARRENSBURG    CLOUDY    72  70  94 NW3       30.02S
WHITEMAN AFB   MOCLDY    72  72  99 NE3       30.01S
CLINTON          N/A     70  70 100 CALM      30.02F FOG
SEDALIA        CLOUDY    73  69  87 CALM      30.03S
WARSAW         NOT AVBL
CHILLICOTHE      N/A     71  68  90 N3        30.05R
KIRKSVILLE     PTCLDY    68  66  93 N3        30.05S FOG

$$

MOZ041-047>049-056>058-063>065-088>090-097-300500-
...EASTERN AND SOUTHERN MISSOURI...

CITY           SKY/WX    TMP DP  RH WIND       PRES   REMARKS
ST. LOUIS INTL MOCLDY    79  68  69 S3        30.02F
SPIRIT OF STL  CLOUDY    74  71  91 CALM      30.01S
COLUMBIA       PTCLDY    73  69  87 E3        30.03S
JEFFERSON CITY CLEAR     73  69  87 CALM      30.01S
ROLLA          MOCLDY    69  66  90 SW6       30.03S
OSAGE BEACH    PTCLDY    72  66  83 E3        30.03S
SPRINGFIELD    MOCLDY    73  67  81 CALM      30.03R
BRANSON        CLOUDY    73  64  73 CALM      30.04S
JOPLIN         MOCLDY    73  70  90 N3        30.01R
WEST PLAINS    CLOUDY    69  64  84 CALM      30.07S

$$

IAZ060-094-KSZ022-034>040-054-083-096-NEZ052-066-093-300500-
...KANSAS...SOUTHEAST NEBRASKA AND IOWA...

CITY           SKY/WX    TMP DP  RH WIND       PRES   REMARKS
TOPEKA         CLOUDY    68  65  90 N3        30.06R
MANHATTAN      CLEAR     64  62  93 N3        30.06R
EMPORIA        CLEAR     63  62  97 E3        30.05R
CHANUTE        CLEAR     68  66  93 N6        30.02S
WICHITA        CLEAR     67  61  81 N7        30.04S
OMAHA          CLOUDY    68  64  87 SE7       30.05F
LINCOLN        CLOUDY    64  61  90 S12       30.07R
FALLS CITY     CLEAR     61  60  97 W3        30.05F
LAMONI         CLEAR     67  65  93 CALM      30.06S
DES MOINES     MOCLDY    68  62  81 SE3       30.04F

$$




USA.gov is the U.S. government's official web portal to all federal, state and local government web resources and services.